Regional Weather Roundup
Issued by NWS

Home | Current Version | Previous Version | Text Only | Print | Product List | Glossary Off
Versions: 1 2 3 4 5 6 7 8 9 10 11 12 13 14 15 16 17 18 19 20 21 22 23 24 25 26 27 28 29 30 31 32 33 34 35 36 37 38 39 40 41 42 43 44 45 46 47 48 49 50

000
ASUS43 KTOP 220159
RWRKS

WEATHER ROUNDUP FOR KANSAS
NATIONAL WEATHER SERVICE GOODLAND KS
900 PM CDT TUE OCT 21 2014

NOTE:  "FAIR" INDICATES FEW OR NO CLOUDS BELOW 12,000 FEET WITH NO
SIGNIFICANT WEATHER AND/OR OBSTRUCTIONS TO VISIBILITY.

KSZ001>006-013>018-027>032-041>047-220300-
NORTHWEST KANSAS

CITY           SKY/WX    TMP DP  RH WIND       PRES   REMARKS
GOODLAND       CLEAR     62  46  55 S14       29.94R
HAYS           CLEAR     64  52  63 SE10      29.99R
HILL CITY      CLEAR     69  53  56 S10       29.95S
RUSSELL        CLEAR     66  57  72 S13       29.98R
$$

KSZ061>065-074>080-084>089-220300-
SOUTHWEST KANSAS

CITY           SKY/WX    TMP DP  RH WIND       PRES   REMARKS
DODGE CITY     CLEAR     67  52  58 S14       30.01R
ELKHART          N/A     62  46  55 S9          N/A
GARDEN CITY    CLEAR     64  51  62 SE13      29.98S
GREAT BEND     CLEAR     66  55  68 S12       30.00S
LIBERAL        CLEAR     64  48  55 SE12      30.02S
$$

KSZ066>073-081>083-090>101-220300-
SOUTHEAST KANSAS

CITY           SKY/WX    TMP DP  RH WIND       PRES   REMARKS
CHANUTE        CLEAR     62  53  72 E6        30.07R
COFFEYVILLE    CLEAR     64  56  75 E6        30.06R
HUTCHINSON     CLEAR     68  58  70 SE9       30.03R
NEWTON         CLEAR     64  54  68 SE9       30.07R
PARSONS        CLEAR     60  57  89 CALM      30.08R
WICHITA INTL   CLEAR     70  59  68 SE10      30.03R
WICHITA JABRA  CLEAR     67  58  72 SE10      30.04R
WINFIELD       CLEAR     67  61  81 E6        30.05R
$$

KSZ007>012-019>026-033>040-048>060-102>105-220300-
NORTHEAST KANSAS

CITY           SKY/WX    TMP DP  RH WIND       PRES   REMARKS
CONCORDIA      CLEAR     64  54  69 SE9       30.00S
EMPORIA        CLEAR     62  55  77 SE9       30.06R
LAWRENCE       CLEAR     56  44  64 E5        30.08R
MANHATTAN      CLEAR     66  52  60 SE5       30.03R
OLATHE IND     CLEAR     60  45  57 E6        30.10R
OLATHE EXE     CLEAR     61  43  51 E6        30.09R
SALINA         CLEAR     65  57  75 SE8       30.01R
TOPEKA BILLARD CLEAR     59  46  62 E5        30.07R
TOPEKA FORBES  CLEAR     58  45  62 SE7       30.07R
$$



USA.gov is the U.S. government's official web portal to all federal, state and local government web resources and services.